DELTA 1 DEB

Satellite information

Favourite Embed

Satellite Type and Status

DEBRISIN ORBIT

Key statistics

Satellite DELTA 1 DEB at a glance.

Uptime

17450

Days in orbit

Revolutions

≈ 14.3

Per day

Orbit

SSO

Sun Synchronous Orbit

Inclination

98.9

Latest

Satellite identification and parameters

Extended collection of information and parameters for DELTA 1 DEB.

Object identification

Identified? True

Debris? True

Object name: DELTA 1 DEB

International designator: 1978-026FS

Object number (NORAD): 13579

Object ID (CCSDS): 13579

Country: UNITED STATES OF AMERICA (US)

Current information (Y/N): Y

RCS size: SMALL

Orbital parameters

Period: 100.887 minutes

Inclination: 98.909 deg

SMA: 7178.778 km

Apoapsis: 812.828 km

Periapsis: 788.458 km

RAAN: 334.3123 deg

Eccentricy: 0.00169736

Argument of periapsis: 281.4274 deg

Mean anomaly: 78.4999 deg

Mean motion: 14.2733849 rev/day

Mean motion (dot): 0.00002166 rev/day2

B* drag term: 0.00090185431 1/REarth

Two-line elements (TLE)

Creation date: Dec. 12, 2025, 10:14 a.m.

Reference frame: TEME

Reference center: EARTH

Epoch: Dec. 12, 2025, 4:17 a.m. UTC

TLE line 0: 0 DELTA 1 DEB

TLE line 1: 1 13579U 78026FS 25346.17897206 .00002166 00000-0 90185-3 0 9999

TLE line 2: 2 13579 98.9090 334.3123 0016974 281.4274 78.4999 14.27338490287156

Live tracking on map

Real-time ground track for satellite DELTA 1 DEB.

In-orbit conjunctions

A list of the most updated potential collisions computed for object DELTA 1 DEB.

Target Orbit TCA Probability of collision Miss distance Type
COSMOS 2251 DEB LEO 2025-11-07 04:59:19 0.0001122937 172.0 (m) DEBRIS
STELLA SSO 2025-05-06 14:50:30 0.000229463 637.0 (m) PAYLOAD
PEGASUS R/B LEO 2024-06-03 22:15:46 0.0001221658 641.0 (m) ROCKET BODY

Associated space launch

Earth observation satellite

DELTA 1 DEB was lifted into orbit during the mission ‘Delta 2910 | Landsat 3’, on board a Delta 2910 space rocket.

The launch took place on March 5, 1978, 5:54 p.m. from Space Launch Complex 2W.

For more information about the launch, click the button.

Launch to space Delta 2910 | Landsat 3
Delta 2910 | Landsat 3

Agency: N/A

Status: Launch Successful

Launch date: March 5, 1978, 5:54 p.m. UTC

Rocket: Delta 2910

Launch pad: Space Launch Complex 2W

Location: Vandenberg SFB, CA, USA

...

Latest news about this satellite

There are no fresh news available about this satellite. Check back as we update our databases every day.


Newsletter sign-up

Weekly statistics, charts and insights to help you stay on top of the space industry.